Location: Kaarina
(60.4167°N, 22.4167°E)
Time: 10:41:37
(UTC+03:00)

Cosmos 1025 Rocket - Pass Details

Date: 24 August 2019
Orbit: 593 x 619 km, 82.5° (Epoch: 21 September)

Event Time Altitude Azimuth Distance (km) Brightness Sun altitude
Rises 23:11:00 0° 345° (NNW) 2,898 7.9 -13.3°
Reaches altitude 10° 23:13:15 10° 345° (NNW) 1,984 6.8 -13.4°
Maximum altitude 23:17:39 89° 255° (WSW) 618 3.0 -13.7°
Enters shadow 23:20:32 21° 168° (SSE) 1,383 4.3 -13.9°
